EN

Hourly Weather Dzietrzniki

Today, 30 October, Friday

Time Temperature Precipitation Wind Pressure Humidity
00:00 +5°C° 0 mm 4 mps 744 mmHg 86%
01:00 +5°C° 0 mm 4 mps 745 mmHg 86%
02:00 +5°C° 0 mm 4 mps 745 mmHg 88%
03:00 +4°C° 0 mm 4 mps 745 mmHg 89%
04:00 +4°C° 0 mm 3 mps 745 mmHg 90%
05:00 +4°C° 0 mm 3 mps 745 mmHg 89%
06:00 +4°C° 0 mm 3 mps 745 mmHg 88%
07:00 +5°C° 0 mm 3 mps 745 mmHg 86%
08:00 +5°C° 0 mm 3 mps 745 mmHg 83%
09:00 +6°C° 0 mm 4 mps 744 mmHg 79%
10:00 +7°C° 0 mm 4 mps 744 mmHg 75%
11:00 +7°C° 0.3 mm 4 mps 744 mmHg 79%
12:00 +7°C° 0.3 mm 4 mps 743 mmHg 83%
13:00 +8°C° 0.3 mm 4 mps 743 mmHg 86%
14:00 +7°C° 1.1 mm 4 mps 743 mmHg 89%
15:00 +8°C° 1.1 mm 3 mps 742 mmHg 92%
16:00 +8°C° 1.1 mm 3 mps 742 mmHg 94%
17:00 +8°C° 0.7 mm 4 mps 742 mmHg 95%
18:00 +10°C° 0.7 mm 4 mps 742 mmHg 95%
19:00 +9°C° 0.7 mm 5 mps 742 mmHg 95%
20:00 +10°C° 0.6 mm 5 mps 743 mmHg 95%
21:00 +10°C° 0.6 mm 5 mps 743 mmHg 95%
22:00 +10°C° 0.6 mm 5 mps 743 mmHg 96%
23:00 +11°C° 0.4 mm 4 mps 743 mmHg 96%

Tomorrow, 31 October, Saturday

Time Temperature Precipitation Wind Pressure Humidity
00:00 +10°C° 0.4 mm 3 mps 744 mmHg 96%
01:00 +10°C° 0.4 mm 2 mps 744 mmHg 96%
02:00 +10°C° 0.7 mm 2 mps 745 mmHg 95%
03:00 +10°C° 0.7 mm 2 mps 745 mmHg 95%
04:00 +9°C° 0.7 mm 2 mps 745 mmHg 94%
05:00 +10°C° 0.2 mm 1 mps 746 mmHg 94%
06:00 +10°C° 0.2 mm 1 mps 747 mmHg 94%
07:00 +10°C° 0.2 mm 1 mps 747 mmHg 94%
08:00 +10°C° 0 mm 1 mps 747 mmHg 89%
09:00 +11°C° 0 mm 1 mps 748 mmHg 85%
10:00 +12°C° 0 mm 1 mps 748 mmHg 81%
11:00 +12°C° 0 mm 1 mps 748 mmHg 78%
12:00 +12°C° 0 mm 0 mps 748 mmHg 75%
13:00 +12°C° 0 mm 0 mps 748 mmHg 72%
14:00 +12°C° 0 mm 0 mps 748 mmHg 74%
15:00 +12°C° 0 mm 0 mps 748 mmHg 76%
16:00 +12°C° 0 mm 1 mps 748 mmHg 78%
17:00 +12°C° 0 mm 1 mps 748 mmHg 80%
18:00 +11°C° 0 mm 1 mps 748 mmHg 81%
19:00 +10°C° 0 mm 2 mps 748 mmHg 83%
20:00 +9°C° 0 mm 2 mps 748 mmHg 84%
21:00 +9°C° 0 mm 2 mps 748 mmHg 85%
22:00 +8°C° 0 mm 2 mps 748 mmHg 86%
23:00 +8°C° 0 mm 3 mps 748 mmHg 87%

Day after tomorrow, 1 November, Sunday

Time Temperature Precipitation Wind Pressure Humidity
00:00 +7°C° 0 mm 3 mps 748 mmHg 88%
01:00 +7°C° 0 mm 3 mps 747 mmHg 89%
02:00 +7°C° 0 mm 3 mps 747 mmHg 89%
03:00 +7°C° 0 mm 3 mps 747 mmHg 89%
04:00 +5°C° 0 mm 3 mps 746 mmHg 89%
05:00 +5°C° 0 mm 3 mps 746 mmHg 88%
06:00 +5°C° 0 mm 4 mps 746 mmHg 86%
07:00 +5°C° 0 mm 4 mps 746 mmHg 85%
08:00 +7°C° 0 mm 4 mps 746 mmHg 81%
09:00 +8°C° 0 mm 4 mps 745 mmHg 78%
10:00 +9°C° 0 mm 5 mps 745 mmHg 75%
11:00 +10°C° 0 mm 5 mps 745 mmHg 74%
12:00 +12°C° 0 mm 5 mps 745 mmHg 74%
13:00 +13°C° 0 mm 5 mps 744 mmHg 73%
14:00 +13°C° 0 mm 5 mps 744 mmHg 75%
15:00 +12°C° 0 mm 5 mps 743 mmHg 77%
16:00 +12°C° 0 mm 5 mps 743 mmHg 80%
17:00 +12°C° 0.3 mm 4 mps 743 mmHg 83%
18:00 +11°C° 0.3 mm 4 mps 743 mmHg 86%
19:00 +11°C° 0.3 mm 4 mps 743 mmHg 88%
20:00 +11°C° 0.4 mm 4 mps 743 mmHg 88%
21:00 +10°C° 0.4 mm 5 mps 743 mmHg 89%
22:00 +10°C° 0.4 mm 5 mps 742 mmHg 89%
23:00 +10°C° 0 mm 5 mps 742 mmHg 88%

2 November, Monday

Time Temperature Precipitation Wind Pressure Humidity
00:00 +10°C° 0 mm 5 mps 742 mmHg 86%
01:00 +10°C° 0 mm 5 mps 742 mmHg 85%
02:00 +10°C° 0 mm 5 mps 741 mmHg 86%
03:00 +10°C° 0 mm 5 mps 741 mmHg 87%
04:00 +10°C° 0 mm 6 mps 741 mmHg 88%
05:00 +11°C° 0 mm 6 mps 741 mmHg 88%
06:00 +12°C° 0 mm 5 mps 741 mmHg 88%
07:00 +12°C° 0 mm 5 mps 741 mmHg 88%
08:00 +13°C° 0.3 mm 6 mps 741 mmHg 88%
09:00 +13°C° 0.3 mm 6 mps 741 mmHg 88%
10:00 +13°C° 0.3 mm 6 mps 741 mmHg 89%
11:00 +14°C° 0 mm 6 mps 741 mmHg 85%
12:00 +15°C° 0 mm 6 mps 740 mmHg 81%
13:00 +16°C° 0 mm 6 mps 740 mmHg 78%
14:00 +15°C° 0 mm 6 mps 740 mmHg 79%
15:00 +15°C° 0 mm 6 mps 740 mmHg 80%
16:00 +15°C° 0 mm 5 mps 740 mmHg 82%
17:00 +15°C° 0 mm 5 mps 741 mmHg 82%
18:00 +15°C° 0 mm 6 mps 741 mmHg 82%
19:00 +15°C° 0 mm 6 mps 741 mmHg 82%
20:00 +15°C° 0 mm 6 mps 741 mmHg 82%
21:00 +14°C° 0 mm 6 mps 741 mmHg 82%
22:00 +14°C° 0 mm 6 mps 742 mmHg 82%
23:00 +14°C° 0 mm 6 mps 742 mmHg 82%

3 November, Tuesday

Time Temperature Precipitation Wind Pressure Humidity
00:00 +14°C° 0 mm 6 mps 742 mmHg 82%
01:00 +14°C° 0 mm 6 mps 742 mmHg 82%
02:00 +14°C° 0 mm 5 mps 742 mmHg 82%
03:00 +13°C° 0 mm 5 mps 742 mmHg 83%
04:00 +13°C° 0 mm 5 mps 742 mmHg 83%
05:00 +13°C° 0 mm 5 mps 743 mmHg 84%
06:00 +13°C° 0 mm 4 mps 743 mmHg 85%
07:00 +13°C° 0 mm 4 mps 744 mmHg 86%
08:00 +13°C° 0 mm 4 mps 744 mmHg 82%
09:00 +14°C° 0 mm 4 mps 745 mmHg 77%
10:00 +15°C° 0 mm 4 mps 745 mmHg 73%
11:00 +15°C° 0 mm 4 mps 746 mmHg 71%
12:00 +16°C° 0 mm 3 mps 746 mmHg 69%
13:00 +16°C° 0 mm 2 mps 746 mmHg 67%
14:00 +16°C° 0 mm 2 mps 746 mmHg 69%
15:00 +15°C° 0 mm 2 mps 746 mmHg 70%
16:00 +15°C° 0 mm 1 mps 746 mmHg 71%
17:00 +14°C° 0 mm 2 mps 746 mmHg 73%
18:00 +14°C° 0 mm 2 mps 746 mmHg 74%
19:00 +14°C° 0 mm 2 mps 746 mmHg 75%
20:00 +14°C° 0 mm 2 mps 746 mmHg 77%
21:00 +14°C° 0 mm 2 mps 746 mmHg 78%
22:00 +13°C° 0 mm 3 mps 746 mmHg 79%
23:00 +13°C° 0.1 mm 3 mps 746 mmHg 82%

4 November, Wednesday

Time Temperature Precipitation Wind Pressure Humidity
00:00 +13°C° 0.1 mm 3 mps 745 mmHg 84%
01:00 +13°C° 0.1 mm 3 mps 745 mmHg 86%
02:00 +12°C° 0.7 mm 3 mps 745 mmHg 88%
03:00 +12°C° 0.7 mm 4 mps 745 mmHg 91%
04:00 +12°C° 0.7 mm 5 mps 745 mmHg 93%
05:00 +10°C° 0.2 mm 5 mps 745 mmHg 90%
06:00 +10°C° 0.2 mm 5 mps 746 mmHg 86%
07:00 +9°C° 0.2 mm 5 mps 746 mmHg 83%
08:00 +9°C° 0 mm 5 mps 747 mmHg 81%
09:00 +10°C° 0 mm 4 mps 747 mmHg 78%
10:00 +10°C° 0 mm 4 mps 748 mmHg 76%
11:00 +11°C° 0 mm 4 mps 748 mmHg 73%
12:00 +11°C° 0 mm 4 mps 748 mmHg 70%
13:00 +11°C° 0 mm 4 mps 748 mmHg 67%
14:00 +11°C° 0 mm 3 mps 749 mmHg 69%
15:00 +10°C° 0 mm 3 mps 749 mmHg 71%
16:00 +10°C° 0 mm 2 mps 749 mmHg 73%
17:00 +9°C° 0 mm 2 mps 750 mmHg 75%
18:00 +9°C° 0 mm 2 mps 750 mmHg 77%
19:00 +8°C° 0 mm 2 mps 751 mmHg 79%
20:00 +8°C° 0 mm 2 mps 751 mmHg 81%
21:00 +7°C° 0 mm 2 mps 751 mmHg 82%
22:00 +7°C° 0 mm 2 mps 752 mmHg 83%
23:00 +7°C° 0 mm 2 mps 752 mmHg 84%
Show more